Marion, IN

5:37 AM EDT on August 24, 2016 (GMT -0400)
Marion Municipal

Weather History for KMZZ - December, 2012

Change the Weather History Date:

Sunday, December 16, 2012

  Actual Average (KMIE) Record (KMIE)
Temperature  
Mean Temperature 46 °F 30 °F  
Max Temperature 92 °F 37 °F 58 °F (1984)
Min Temperature 40 °F 23 °F -8 °F (1989)
Degree Days  
Heating Degree Days 20 35  
Month to date heating degree days 516  
Since 1 July heating degree days 1651  
Cooling Degree Days 0 0  
Month to date cooling degree days 0  
Year to date cooling degree days 956  
Moisture  
Dew Point 45 °F    
Average Humidity 89    
Maximum Humidity 95    
Minimum Humidity 78    
Precipitation  
Precipitation 0.00 in 0.09 in 0.61 in (1982)
Month to date precipitation 1.52  
Year to date precipitation 38.76  
Sea Level Pressure  
Sea Level Pressure 29.69 in    
Wind  
Wind Speed 11 mph (WSW)    
Max Wind Speed 17 mph    
Max Gust Speed 20 mph    
Visibility 7 miles    
Events      
T = Trace of Precipitation, MM = Missing Value Source: NWS Daily Summary

Daily Weather History Graph

Daily Weather History Graph

Search for Another Location

Airport or City:

Trip Planner

Search our weather history database for the weather conditions in past years. The results will help you decide how hot, cold, wet, or windy it might be!

Date:

Astronomy

Dec. 16, 2012 Rise Set
Actual Time 7:59 AM EST 5:17 PM EST
Civil Twilight 7:29 AM EST 5:48 PM EST
Nautical Twilight 6:54 AM EST 6:22 PM EST
Astronomical Twilight 6:21 AM EST 6:55 PM EST
Moon 10:32 AM EST (12/16) 9:31 PM EST (12/16)
Length of Visible Light 10h 19m
Length of Day
9h 17m
Waxing Crescent, 16% of the Moon is Illuminated
Dec 16
Waxing Crescent
Dec 20
First Quarter
Dec 28
Full
Jan 4
Last Quarter
Jan 11
New

Hourly Weather History & Observations

Time (EST) Temp. Windchill Dew Point Humidity Pressure Visibility Wind Dir Wind Speed Gust Speed Precip Events Conditions
12:15 AM 50.2 °F - 47.3 °F 90% 29.69 in 10.0 mi SSW 17.3 mph - N/A   Overcast
12:35 AM 50.4 °F - 47.7 °F 90% 29.69 in 10.0 mi SSW 15.0 mph - N/A   Overcast
12:55 AM 50.9 °F - 47.8 °F 89% 29.69 in 10.0 mi SSW 16.1 mph - N/A   Overcast
1:15 AM 50.9 °F - 48.0 °F 90% 29.69 in 7.0 mi SSW 12.7 mph - N/A   Overcast
1:35 AM 50.9 °F - 48.2 °F 90% 29.68 in 5.0 mi SSW 13.8 mph 18.4 mph N/A   Overcast
1:55 AM 50.5 °F - 48.2 °F 92% 29.68 in 7.0 mi SSW 10.4 mph - N/A   Overcast
2:15 AM 50.9 °F - 48.4 °F 91% 29.68 in 10.0 mi SSW 9.2 mph - N/A   Overcast
2:55 AM 50.7 °F - 48.6 °F 92% 29.68 in 5.0 mi South 8.1 mph - N/A   Overcast
3:15 AM 50.5 °F - 48.4 °F 92% 29.69 in 7.0 mi South 8.1 mph - N/A   Overcast
3:55 AM 50.4 °F - 48.4 °F 93% 29.68 in 7.0 mi SSW 9.2 mph - N/A   Overcast
4:15 AM 50.7 °F - 48.6 °F 92% 29.68 in 7.0 mi South 8.1 mph - N/A   Overcast
4:35 AM 50.5 °F - 48.4 °F 92% 29.68 in 10.0 mi SSW 8.1 mph - N/A   Overcast
4:55 AM 50.4 °F - 48.4 °F 93% 29.67 in 7.0 mi SSW 8.1 mph - N/A   Overcast
5:15 AM 50.7 °F - 48.6 °F 92% 29.67 in 7.0 mi SSW 8.1 mph - N/A   Overcast
5:35 AM 50.9 °F - 48.6 °F 92% 29.67 in 10.0 mi SSW 8.1 mph - N/A   Overcast
6:15 AM 50.0 °F - 47.7 °F 92% 29.67 in 10.0 mi SW 8.1 mph - N/A   Scattered Clouds
6:55 AM 49.3 °F - 47.3 °F 93% 29.68 in 10.0 mi SW 5.8 mph - N/A   Overcast
7:15 AM 48.9 °F - 46.9 °F 93% 29.68 in 10.0 mi SW 9.2 mph - N/A   Mostly Cloudy
7:35 AM 48.2 °F - 46.0 °F 92% 29.68 in 7.0 mi SSW 9.2 mph - N/A   Scattered Clouds
7:55 AM 47.1 °F - 45.3 °F 93% 29.69 in 7.0 mi SW 8.1 mph - N/A   Scattered Clouds
8:15 AM 47.1 °F - 45.7 °F 95% 29.69 in 7.0 mi SW 6.9 mph - N/A   Mostly Cloudy
8:35 AM 47.7 °F - 46.0 °F 94% 29.69 in 7.0 mi SW 6.9 mph - N/A   Overcast
8:55 AM 47.7 °F - 46.0 °F 94% 29.69 in 5.0 mi SSW 8.1 mph - N/A   Mostly Cloudy
9:15 AM 48.0 °F - 46.6 °F 95% 29.69 in 7.0 mi SW 6.9 mph - N/A   Mostly Cloudy
9:35 AM 48.6 °F - 46.9 °F 94% 29.70 in 7.0 mi SW 8.1 mph - N/A   Overcast
9:55 AM 49.1 °F - 47.3 °F 93% 29.70 in 7.0 mi SW 10.4 mph - N/A   Overcast
10:15 AM 49.8 °F - 47.7 °F 92% 29.70 in 7.0 mi SW 9.2 mph - N/A   Overcast
10:35 AM 50.0 °F - 47.7 °F 92% 29.71 in 7.0 mi SW 9.2 mph - N/A   Overcast
10:55 AM 50.0 °F - 47.5 °F 91% 29.71 in 7.0 mi SW 10.4 mph - N/A   Overcast
11:15 AM 50.4 °F - 47.3 °F 89% 29.71 in 10.0 mi WSW 12.7 mph - N/A   Overcast
11:35 AM 50.7 °F - 46.6 °F 86% 29.70 in 7.0 mi WSW 13.8 mph 17.3 mph N/A   Overcast
11:55 AM 50.4 °F - 45.7 °F 84% 29.69 in 10.0 mi WSW 12.7 mph - N/A   Overcast
12:35 PM 50.7 °F - 45.5 °F 82% 29.68 in 7.0 mi WSW 11.5 mph - N/A   Overcast
12:55 PM 51.3 °F - 45.7 °F 81% 29.68 in 7.0 mi SW 12.7 mph - N/A   Overcast
1:15 PM 51.6 °F - 45.9 °F 81% 29.66 in 10.0 mi WSW 13.8 mph 19.6 mph N/A   Overcast
1:35 PM 51.1 °F - 45.5 °F 81% 29.66 in 7.0 mi WSW 12.7 mph - N/A   Overcast
1:55 PM 51.1 °F - 45.5 °F 81% 29.65 in 7.0 mi WSW 13.8 mph 17.3 mph N/A   Overcast
2:15 PM 51.3 °F - 45.3 °F 80% 29.64 in 7.0 mi West 12.7 mph - N/A   Overcast
2:35 PM 50.5 °F - 45.3 °F 82% 29.64 in 7.0 mi West 11.5 mph - N/A   Overcast
2:55 PM 49.6 °F - 44.4 °F 82% 29.63 in 10.0 mi West 13.8 mph - N/A   Overcast
3:15 PM 49.6 °F - 43.7 °F 80% 29.64 in 4.0 mi WSW 10.4 mph - N/A   Haze
3:35 PM 49.5 °F - 43.2 °F 79% 29.65 in 7.0 mi West 10.4 mph 17.3 mph N/A   Overcast
3:55 PM 49.5 °F - 43.0 °F 78% 29.66 in 5.0 mi WSW 10.4 mph - N/A   Haze
4:15 PM 49.1 °F - 43.2 °F 80% 29.67 in 10.0 mi WSW 9.2 mph - N/A   Overcast
4:35 PM 48.7 °F - 43.3 °F 82% 29.67 in 10.0 mi West 9.2 mph - N/A   Overcast
4:55 PM 48.0 °F - 43.0 °F 83% 29.68 in 7.0 mi West 9.2 mph - N/A   Overcast
5:15 PM 47.5 °F - 42.8 °F 84% 29.66 in 7.0 mi West 10.4 mph - N/A   Overcast
5:35 PM 46.6 °F - 42.3 °F 85% 29.66 in 7.0 mi West 6.9 mph - N/A   Overcast
5:55 PM 46.2 °F 42.2 °F 42.3 °F 86% 29.67 in 10.0 mi West 8.1 mph - N/A   Overcast
6:15 PM 46.2 °F 41.7 °F 41.9 °F 85% 29.68 in 7.0 mi West 9.2 mph - N/A   Overcast
6:55 PM 45.7 °F 42.7 °F 41.5 °F 85% 29.69 in 7.0 mi WNW 5.8 mph - N/A   Overcast
7:15 PM 45.0 °F 41.2 °F 42.3 °F 90% 29.69 in 7.0 mi WNW 6.9 mph - N/A   Overcast
7:55 PM 44.6 °F 40.2 °F 42.3 °F 91% 29.69 in 4.0 mi WNW 8.1 mph - N/A   Overcast
8:15 PM 43.7 °F 36.9 °F 41.5 °F 92% 29.71 in 5.0 mi NW 13.8 mph - N/A   Overcast
8:35 PM 42.6 °F 37.2 °F 40.5 °F 92% 29.71 in 5.0 mi WNW 9.2 mph - N/A   Overcast
8:55 PM 42.3 °F 36.8 °F 39.7 °F 91% 29.72 in 7.0 mi WNW 9.2 mph - N/A   Overcast
9:15 PM 42.1 °F 37.7 °F 39.2 °F 90% 29.72 in 7.0 mi WNW 6.9 mph - N/A   Overcast
9:35 PM 41.9 °F 36.3 °F 39.0 °F 90% 29.73 in 7.0 mi WNW 9.2 mph - N/A   Overcast
9:55 PM 41.7 °F 35.6 °F 39.2 °F 91% 29.74 in 5.0 mi WNW 10.4 mph - N/A   Overcast
10:15 PM 41.4 °F 36.8 °F 39.2 °F 92% 29.74 in 5.0 mi NW 6.9 mph - N/A   Overcast
10:35 PM 41.0 °F 36.4 °F 39.2 °F 93% 29.75 in 5.0 mi WNW 6.9 mph - N/A   Overcast
10:55 PM 41.0 °F 36.4 °F 38.7 °F 91% 29.74 in 7.0 mi WNW 6.9 mph - N/A   Overcast
11:15 PM 41.0 °F 37.1 °F 37.8 °F 88% 29.74 in 7.0 mi WNW 5.8 mph - N/A   Overcast
11:35 PM 40.6 °F 36.7 °F 38.1 °F 91% 29.73 in 7.0 mi WNW 5.8 mph - N/A   Overcast
11:55 PM 40.5 °F 36.5 °F 38.3 °F 92% 29.73 in 5.0 mi WNW 5.8 mph - N/A   Overcast